Torna al catalogo

CZ-4C DEB

AttivoPO
NORAD 38295·DEBRIS·🇨🇳 China

Lanciato Nov 4, 2010 da Taiyuan Satellite Launch Center

Loading…

Prossimi Passaggi (prossime 24 ore)

TLE

AggiornatoSource: Space-Track

Epoca: Sep 14, 2026, 09:29 UTC

1 38295U 10059E   26257.39535976  .00000224  00000-0  22769-3 0  9998
2 38295  98.6438  85.9082 0267261 315.8549 160.4542 13.71476856680709

Traccia CZ-4C DEB in tempo reale con AllMySat

Download on the App Store